locationName,lineName,date,time,countIn,countOut
�n����ʂ�,3_1_2,2022/7/1,0:00,1,2
�n����ʂ�,3_1_2,2022/7/1,1:00,0,0
�n����ʂ�,3_1_2,2022/7/1,2:00,0,0
�n����ʂ�,3_1_2,2022/7/1,3:00,0,0
�n����ʂ�,3_1_2,2022/7/1,4:00,3,1
�n����ʂ�,3_1_2,2022/7/1,5:00,10,14
�n����ʂ�,3_1_2,2022/7/1,6:00,17,11
�n����ʂ�,3_1_2,2022/7/1,7:00,79,36
�n����ʂ�,3_1_2,2022/7/1,8:00,39,40
�n����ʂ�,3_1_2,2022/7/1,9:00,33,55
�n����ʂ�,3_1_2,2022/7/1,10:00,40,56
�n����ʂ�,3_1_2,2022/7/1,11:00,52,56
�n����ʂ�,3_1_2,2022/7/1,12:00,70,63
�n����ʂ�,3_1_2,2022/7/1,13:00,37,55
�n����ʂ�,3_1_2,2022/7/1,14:00,28,51
�n����ʂ�,3_1_2,2022/7/1,15:00,18,41
�n����ʂ�,3_1_2,2022/7/1,16:00,30,51
�n����ʂ�,3_1_2,2022/7/1,17:00,57,49
�n����ʂ�,3_1_2,2022/7/1,18:00,53,48
�n����ʂ�,3_1_2,2022/7/1,19:00,33,40
�n����ʂ�,3_1_2,2022/7/1,20:00,19,17
�n����ʂ�,3_1_2,2022/7/1,21:00,12,24
�n����ʂ�,3_1_2,2022/7/1,22:00,10,10
�n����ʂ�,3_1_2,2022/7/1,23:00,8,2
�n����ʂ�,3_1_2,2022/7/2,0:00,3,2
�n����ʂ�,3_1_2,2022/7/2,1:00,0,5
�n����ʂ�,3_1_2,2022/7/2,2:00,5,0
�n����ʂ�,3_1_2,2022/7/2,3:00,4,1
�n����ʂ�,3_1_2,2022/7/2,4:00,3,4
�n����ʂ�,3_1_2,2022/7/2,5:00,6,22
�n����ʂ�,3_1_2,2022/7/2,6:00,6,22
�n����ʂ�,3_1_2,2022/7/2,7:00,61,24
�n����ʂ�,3_1_2,2022/7/2,8:00,48,25
�n����ʂ�,3_1_2,2022/7/2,9:00,25,37
�n����ʂ�,3_1_2,2022/7/2,10:00,38,56
�n����ʂ�,3_1_2,2022/7/2,11:00,54,63
�n����ʂ�,3_1_2,2022/7/2,12:00,60,73
�n����ʂ�,3_1_2,2022/7/2,13:00,57,64
�n����ʂ�,3_1_2,2022/7/2,14:00,53,61
�n����ʂ�,3_1_2,2022/7/2,15:00,56,49
�n����ʂ�,3_1_2,2022/7/2,16:00,49,87
�n����ʂ�,3_1_2,2022/7/2,17:00,50,62
�n����ʂ�,3_1_2,2022/7/2,18:00,53,64
�n����ʂ�,3_1_2,2022/7/2,19:00,39,45
�n����ʂ�,3_1_2,2022/7/2,20:00,33,35
�n����ʂ�,3_1_2,2022/7/2,21:00,31,25
�n����ʂ�,3_1_2,2022/7/2,22:00,5,2
�n����ʂ�,3_1_2,2022/7/2,23:00,3,1
�n����ʂ�,3_1_2,2022/7/3,0:00,0,0
�n����ʂ�,3_1_2,2022/7/3,1:00,3,1
�n����ʂ�,3_1_2,2022/7/3,2:00,1,0
�n����ʂ�,3_1_2,2022/7/3,3:00,0,0
�n����ʂ�,3_1_2,2022/7/3,4:00,0,1
�n����ʂ�,3_1_2,2022/7/3,5:00,11,6
�n����ʂ�,3_1_2,2022/7/3,6:00,8,2
�n����ʂ�,3_1_2,2022/7/3,7:00,18,14
�n����ʂ�,3_1_2,2022/7/3,8:00,19,8
�n����ʂ�,3_1_2,2022/7/3,9:00,27,32
�n����ʂ�,3_1_2,2022/7/3,10:00,33,48
�n����ʂ�,3_1_2,2022/7/3,11:00,46,64
�n����ʂ�,3_1_2,2022/7/3,12:00,77,98
�n����ʂ�,3_1_2,2022/7/3,13:00,65,84
�n����ʂ�,3_1_2,2022/7/3,14:00,70,92
�n����ʂ�,3_1_2,2022/7/3,15:00,80,84
�n����ʂ�,3_1_2,2022/7/3,16:00,44,73
�n����ʂ�,3_1_2,2022/7/3,17:00,38,50
�n����ʂ�,3_1_2,2022/7/3,18:00,32,35
�n����ʂ�,3_1_2,2022/7/3,19:00,22,13
�n����ʂ�,3_1_2,2022/7/3,20:00,20,11
�n����ʂ�,3_1_2,2022/7/3,21:00,10,7
�n����ʂ�,3_1_2,2022/7/3,22:00,5,8
�n����ʂ�,3_1_2,2022/7/3,23:00,2,0
�n����ʂ�,3_1_2,2022/7/4,0:00,1,2
�n����ʂ�,3_1_2,2022/7/4,1:00,0,0
�n����ʂ�,3_1_2,2022/7/4,2:00,0,0
�n����ʂ�,3_1_2,2022/7/4,3:00,0,1
�n����ʂ�,3_1_2,2022/7/4,4:00,1,0
�n����ʂ�,3_1_2,2022/7/4,5:00,4,7
�n����ʂ�,3_1_2,2022/7/4,6:00,8,7
�n����ʂ�,3_1_2,2022/7/4,7:00,46,40
�n����ʂ�,3_1_2,2022/7/4,8:00,46,55
�n����ʂ�,3_1_2,2022/7/4,9:00,23,53
�n����ʂ�,3_1_2,2022/7/4,10:00,29,51
�n����ʂ�,3_1_2,2022/7/4,11:00,47,54
�n����ʂ�,3_1_2,2022/7/4,12:00,47,54
�n����ʂ�,3_1_2,2022/7/4,13:00,47,42
�n����ʂ�,3_1_2,2022/7/4,14:00,23,45
�n����ʂ�,3_1_2,2022/7/4,15:00,31,56
�n����ʂ�,3_1_2,2022/7/4,16:00,31,55
�n����ʂ�,3_1_2,2022/7/4,17:00,65,51
�n����ʂ�,3_1_2,2022/7/4,18:00,42,49
�n����ʂ�,3_1_2,2022/7/4,19:00,22,18
�n����ʂ�,3_1_2,2022/7/4,20:00,14,12
�n����ʂ�,3_1_2,2022/7/4,21:00,12,15
�n����ʂ�,3_1_2,2022/7/4,22:00,3,0
�n����ʂ�,3_1_2,2022/7/4,23:00,1,0
�n����ʂ�,3_1_2,2022/7/5,0:00,3,0
�n����ʂ�,3_1_2,2022/7/5,1:00,0,0
�n����ʂ�,3_1_2,2022/7/5,2:00,0,1
�n����ʂ�,3_1_2,2022/7/5,3:00,0,0
�n����ʂ�,3_1_2,2022/7/5,4:00,0,0
�n����ʂ�,3_1_2,2022/7/5,5:00,7,5
�n����ʂ�,3_1_2,2022/7/5,6:00,9,5
�n����ʂ�,3_1_2,2022/7/5,7:00,63,29
�n����ʂ�,3_1_2,2022/7/5,8:00,54,49
�n����ʂ�,3_1_2,2022/7/5,9:00,29,52
�n����ʂ�,3_1_2,2022/7/5,10:00,39,48
�n����ʂ�,3_1_2,2022/7/5,11:00,37,47
�n����ʂ�,3_1_2,2022/7/5,12:00,59,64
�n����ʂ�,3_1_2,2022/7/5,13:00,45,52
�n����ʂ�,3_1_2,2022/7/5,14:00,47,57
�n����ʂ�,3_1_2,2022/7/5,15:00,47,46
�n����ʂ�,3_1_2,2022/7/5,16:00,52,65
�n����ʂ�,3_1_2,2022/7/5,17:00,68,46
�n����ʂ�,3_1_2,2022/7/5,18:00,56,65
�n����ʂ�,3_1_2,2022/7/5,19:00,28,26
�n����ʂ�,3_1_2,2022/7/5,20:00,12,15
�n����ʂ�,3_1_2,2022/7/5,21:00,13,14
�n����ʂ�,3_1_2,2022/7/5,22:00,3,2
�n����ʂ�,3_1_2,2022/7/5,23:00,2,0
�n����ʂ�,3_1_2,2022/7/6,0:00,1,0
�n����ʂ�,3_1_2,2022/7/6,1:00,0,0
�n����ʂ�,3_1_2,2022/7/6,2:00,0,0
�n����ʂ�,3_1_2,2022/7/6,3:00,0,0
�n����ʂ�,3_1_2,2022/7/6,4:00,0,5
�n����ʂ�,3_1_2,2022/7/6,5:00,11,9
�n����ʂ�,3_1_2,2022/7/6,6:00,16,6
�n����ʂ�,3_1_2,2022/7/6,7:00,59,36
�n����ʂ�,3_1_2,2022/7/6,8:00,64,50
�n����ʂ�,3_1_2,2022/7/6,9:00,22,43
�n����ʂ�,3_1_2,2022/7/6,10:00,45,60
�n����ʂ�,3_1_2,2022/7/6,11:00,36,41
�n����ʂ�,3_1_2,2022/7/6,12:00,65,68
�n����ʂ�,3_1_2,2022/7/6,13:00,34,43
�n����ʂ�,3_1_2,2022/7/6,14:00,34,42
�n����ʂ�,3_1_2,2022/7/6,15:00,46,42
�n����ʂ�,3_1_2,2022/7/6,16:00,42,31
�n����ʂ�,3_1_2,2022/7/6,17:00,56,22
�n����ʂ�,3_1_2,2022/7/6,18:00,44,15
�n����ʂ�,3_1_2,2022/7/6,19:00,16,9
�n����ʂ�,3_1_2,2022/7/6,20:00,21,14
�n����ʂ�,3_1_2,2022/7/6,21:00,16,13
�n����ʂ�,3_1_2,2022/7/6,22:00,0,1
�n����ʂ�,3_1_2,2022/7/6,23:00,1,1
�n����ʂ�,3_1_2,2022/7/7,0:00,1,0
�n����ʂ�,3_1_2,2022/7/7,1:00,0,0
�n����ʂ�,3_1_2,2022/7/7,2:00,0,0
�n����ʂ�,3_1_2,2022/7/7,3:00,0,0
�n����ʂ�,3_1_2,2022/7/7,4:00,2,1
�n����ʂ�,3_1_2,2022/7/7,5:00,12,5
�n����ʂ�,3_1_2,2022/7/7,6:00,19,7
�n����ʂ�,3_1_2,2022/7/7,7:00,65,29
�n����ʂ�,3_1_2,2022/7/7,8:00,45,37
�n����ʂ�,3_1_2,2022/7/7,9:00,29,29
�n����ʂ�,3_1_2,2022/7/7,10:00,36,33
�n����ʂ�,3_1_2,2022/7/7,11:00,33,41
�n����ʂ�,3_1_2,2022/7/7,12:00,65,51
�n����ʂ�,3_1_2,2022/7/7,13:00,40,61
�n����ʂ�,3_1_2,2022/7/7,14:00,48,52
�n����ʂ�,3_1_2,2022/7/7,15:00,43,30
�n����ʂ�,3_1_2,2022/7/7,16:00,39,45
�n����ʂ�,3_1_2,2022/7/7,17:00,69,45
�n����ʂ�,3_1_2,2022/7/7,18:00,64,65
�n����ʂ�,3_1_2,2022/7/7,19:00,25,21
�n����ʂ�,3_1_2,2022/7/7,20:00,21,13
�n����ʂ�,3_1_2,2022/7/7,21:00,13,9
�n����ʂ�,3_1_2,2022/7/7,22:00,1,0
�n����ʂ�,3_1_2,2022/7/7,23:00,0,0
�n����ʂ�,3_1_2,2022/7/8,0:00,1,1
�n����ʂ�,3_1_2,2022/7/8,1:00,0,0
�n����ʂ�,3_1_2,2022/7/8,2:00,1,0
�n����ʂ�,3_1_2,2022/7/8,3:00,0,0
�n����ʂ�,3_1_2,2022/7/8,4:00,1,1
�n����ʂ�,3_1_2,2022/7/8,5:00,6,6
�n����ʂ�,3_1_2,2022/7/8,6:00,8,3
�n����ʂ�,3_1_2,2022/7/8,7:00,37,31
�n����ʂ�,3_1_2,2022/7/8,8:00,41,26
�n����ʂ�,3_1_2,2022/7/8,9:00,39,38
�n����ʂ�,3_1_2,2022/7/8,10:00,46,58
�n����ʂ�,3_1_2,2022/7/8,11:00,49,49
�n����ʂ�,3_1_2,2022/7/8,12:00,50,47
�n����ʂ�,3_1_2,2022/7/8,13:00,40,37
�n����ʂ�,3_1_2,2022/7/8,14:00,49,54
�n����ʂ�,3_1_2,2022/7/8,15:00,36,39
�n����ʂ�,3_1_2,2022/7/8,16:00,16,20
�n����ʂ�,3_1_2,2022/7/8,17:00,15,27
�n����ʂ�,3_1_2,2022/7/8,18:00,9,33
�n����ʂ�,3_1_2,2022/7/8,19:00,5,8
�n����ʂ�,3_1_2,2022/7/8,20:00,3,3
�n����ʂ�,3_1_2,2022/7/8,21:00,7,6
�n����ʂ�,3_1_2,2022/7/8,22:00,0,0
�n����ʂ�,3_1_2,2022/7/8,23:00,0,0
�n����ʂ�,3_1_2,2022/7/9,0:00,0,0
�n����ʂ�,3_1_2,2022/7/9,1:00,0,0
�n����ʂ�,3_1_2,2022/7/9,2:00,0,0
�n����ʂ�,3_1_2,2022/7/9,3:00,0,0
�n����ʂ�,3_1_2,2022/7/9,4:00,0,0
�n����ʂ�,3_1_2,2022/7/9,5:00,1,6
�n����ʂ�,3_1_2,2022/7/9,6:00,2,5
�n����ʂ�,3_1_2,2022/7/9,7:00,6,8
�n����ʂ�,3_1_2,2022/7/9,8:00,9,13
�n����ʂ�,3_1_2,2022/7/9,9:00,11,24
�n����ʂ�,3_1_2,2022/7/9,10:00,16,29
�n����ʂ�,3_1_2,2022/7/9,11:00,16,32
�n����ʂ�,3_1_2,2022/7/9,12:00,16,44
�n����ʂ�,3_1_2,2022/7/9,13:00,39,45
�n����ʂ�,3_1_2,2022/7/9,14:00,43,71
�n����ʂ�,3_1_2,2022/7/9,15:00,33,57
�n����ʂ�,3_1_2,2022/7/9,16:00,52,49
�n����ʂ�,3_1_2,2022/7/9,17:00,43,61
�n����ʂ�,3_1_2,2022/7/9,18:00,30,48
�n����ʂ�,3_1_2,2022/7/9,19:00,14,17
�n����ʂ�,3_1_2,2022/7/9,20:00,5,11
�n����ʂ�,3_1_2,2022/7/9,21:00,16,9
�n����ʂ�,3_1_2,2022/7/9,22:00,8,3
�n����ʂ�,3_1_2,2022/7/9,23:00,0,0
�n����ʂ�,3_1_2,2022/7/10,0:00,0,0
�n����ʂ�,3_1_2,2022/7/10,1:00,0,0
�n����ʂ�,3_1_2,2022/7/10,2:00,0,0
�n����ʂ�,3_1_2,2022/7/10,3:00,0,0
�n����ʂ�,3_1_2,2022/7/10,4:00,0,0
�n����ʂ�,3_1_2,2022/7/10,5:00,5,2
�n����ʂ�,3_1_2,2022/7/10,6:00,4,1
�n����ʂ�,3_1_2,2022/7/10,7:00,6,5
�n����ʂ�,3_1_2,2022/7/10,8:00,16,17
�n����ʂ�,3_1_2,2022/7/10,9:00,20,23
�n����ʂ�,3_1_2,2022/7/10,10:00,30,41
�n����ʂ�,3_1_2,2022/7/10,11:00,41,44
�n����ʂ�,3_1_2,2022/7/10,12:00,76,65
�n����ʂ�,3_1_2,2022/7/10,13:00,63,57
�n����ʂ�,3_1_2,2022/7/10,14:00,51,85
�n����ʂ�,3_1_2,2022/7/10,15:00,42,69
�n����ʂ�,3_1_2,2022/7/10,16:00,49,56
�n����ʂ�,3_1_2,2022/7/10,17:00,13,26
�n����ʂ�,3_1_2,2022/7/10,18:00,8,25
�n����ʂ�,3_1_2,2022/7/10,19:00,3,8
�n����ʂ�,3_1_2,2022/7/10,20:00,4,9
�n����ʂ�,3_1_2,2022/7/10,21:00,20,9
�n����ʂ�,3_1_2,2022/7/10,22:00,0,0
�n����ʂ�,3_1_2,2022/7/10,23:00,0,0
�n����ʂ�,3_1_2,2022/7/11,0:00,0,0
�n����ʂ�,3_1_2,2022/7/11,1:00,5,0
�n����ʂ�,3_1_2,2022/7/11,2:00,0,0
�n����ʂ�,3_1_2,2022/7/11,3:00,0,0
�n����ʂ�,3_1_2,2022/7/11,4:00,0,0
�n����ʂ�,3_1_2,2022/7/11,5:00,5,2
�n����ʂ�,3_1_2,2022/7/11,6:00,5,2
�n����ʂ�,3_1_2,2022/7/11,7:00,25,20
�n����ʂ�,3_1_2,2022/7/11,8:00,10,23
�n����ʂ�,3_1_2,2022/7/11,9:00,15,12
�n����ʂ�,3_1_2,2022/7/11,10:00,22,22
�n����ʂ�,3_1_2,2022/7/11,11:00,25,27
�n����ʂ�,3_1_2,2022/7/11,12:00,37,43
�n����ʂ�,3_1_2,2022/7/11,13:00,57,37
�n����ʂ�,3_1_2,2022/7/11,14:00,48,45
�n����ʂ�,3_1_2,2022/7/11,15:00,35,32
�n����ʂ�,3_1_2,2022/7/11,16:00,14,23
�n����ʂ�,3_1_2,2022/7/11,17:00,11,25
�n����ʂ�,3_1_2,2022/7/11,18:00,9,22
�n����ʂ�,3_1_2,2022/7/11,19:00,3,9
�n����ʂ�,3_1_2,2022/7/11,20:00,16,10
�n����ʂ�,3_1_2,2022/7/11,21:00,25,5
�n����ʂ�,3_1_2,2022/7/11,22:00,1,0
�n����ʂ�,3_1_2,2022/7/11,23:00,0,0
�n����ʂ�,3_1_2,2022/7/12,0:00,0,0
�n����ʂ�,3_1_2,2022/7/12,1:00,1,1
�n����ʂ�,3_1_2,2022/7/12,2:00,0,0
�n����ʂ�,3_1_2,2022/7/12,3:00,0,0
�n����ʂ�,3_1_2,2022/7/12,4:00,0,0
�n����ʂ�,3_1_2,2022/7/12,5:00,1,1
�n����ʂ�,3_1_2,2022/7/12,6:00,2,2
�n����ʂ�,3_1_2,2022/7/12,7:00,2,12
�n����ʂ�,3_1_2,2022/7/12,8:00,14,24
�n����ʂ�,3_1_2,2022/7/12,9:00,19,43
�n����ʂ�,3_1_2,2022/7/12,10:00,70,48
�n����ʂ�,3_1_2,2022/7/12,11:00,56,58
�n����ʂ�,3_1_2,2022/7/12,12:00,38,47
�n����ʂ�,3_1_2,2022/7/12,13:00,45,36
�n����ʂ�,3_1_2,2022/7/12,14:00,80,57
�n����ʂ�,3_1_2,2022/7/12,15:00,40,41
�n����ʂ�,3_1_2,2022/7/12,16:00,44,49
�n����ʂ�,3_1_2,2022/7/12,17:00,40,54
�n����ʂ�,3_1_2,2022/7/12,18:00,53,53
�n����ʂ�,3_1_2,2022/7/12,19:00,43,26
�n����ʂ�,3_1_2,2022/7/12,20:00,15,11
�n����ʂ�,3_1_2,2022/7/12,21:00,76,28
�n����ʂ�,3_1_2,2022/7/12,22:00,1,0
�n����ʂ�,3_1_2,2022/7/12,23:00,0,0
�n����ʂ�,3_1_2,2022/7/13,0:00,0,0
�n����ʂ�,3_1_2,2022/7/13,1:00,0,0
�n����ʂ�,3_1_2,2022/7/13,2:00,0,0
�n����ʂ�,3_1_2,2022/7/13,3:00,0,0
�n����ʂ�,3_1_2,2022/7/13,4:00,1,2
�n����ʂ�,3_1_2,2022/7/13,5:00,3,7
�n����ʂ�,3_1_2,2022/7/13,6:00,3,3
�n����ʂ�,3_1_2,2022/7/13,7:00,11,22
�n����ʂ�,3_1_2,2022/7/13,8:00,7,14
�n����ʂ�,3_1_2,2022/7/13,9:00,33,36
�n����ʂ�,3_1_2,2022/7/13,10:00,48,38
�n����ʂ�,3_1_2,2022/7/13,11:00,65,43
�n����ʂ�,3_1_2,2022/7/13,12:00,63,62
�n����ʂ�,3_1_2,2022/7/13,13:00,26,58
�n����ʂ�,3_1_2,2022/7/13,14:00,23,50
�n����ʂ�,3_1_2,2022/7/13,15:00,25,30
�n����ʂ�,3_1_2,2022/7/13,16:00,30,36
�n����ʂ�,3_1_2,2022/7/13,17:00,39,31
�n����ʂ�,3_1_2,2022/7/13,18:00,25,26
�n����ʂ�,3_1_2,2022/7/13,19:00,12,15
�n����ʂ�,3_1_2,2022/7/13,20:00,9,6
�n����ʂ�,3_1_2,2022/7/13,21:00,10,14
�n����ʂ�,3_1_2,2022/7/13,22:00,0,0
�n����ʂ�,3_1_2,2022/7/13,23:00,0,0
�n����ʂ�,3_1_2,2022/7/14,0:00,0,0
�n����ʂ�,3_1_2,2022/7/14,1:00,0,0
�n����ʂ�,3_1_2,2022/7/14,2:00,0,0
�n����ʂ�,3_1_2,2022/7/14,3:00,0,0
�n����ʂ�,3_1_2,2022/7/14,4:00,0,0
�n����ʂ�,3_1_2,2022/7/14,5:00,1,2
�n����ʂ�,3_1_2,2022/7/14,6:00,3,4
�n����ʂ�,3_1_2,2022/7/14,7:00,12,17
�n����ʂ�,3_1_2,2022/7/14,8:00,14,22
�n����ʂ�,3_1_2,2022/7/14,9:00,18,19
�n����ʂ�,3_1_2,2022/7/14,10:00,8,24
�n����ʂ�,3_1_2,2022/7/14,11:00,21,25
�n����ʂ�,3_1_2,2022/7/14,12:00,45,46
�n����ʂ�,3_1_2,2022/7/14,13:00,35,41
�n����ʂ�,3_1_2,2022/7/14,14:00,26,36
�n����ʂ�,3_1_2,2022/7/14,15:00,26,28
�n����ʂ�,3_1_2,2022/7/14,16:00,20,26
�n����ʂ�,3_1_2,2022/7/14,17:00,21,23
�n����ʂ�,3_1_2,2022/7/14,18:00,31,38
�n����ʂ�,3_1_2,2022/7/14,19:00,8,12
�n����ʂ�,3_1_2,2022/7/14,20:00,10,16
�n����ʂ�,3_1_2,2022/7/14,21:00,31,22
�n����ʂ�,3_1_2,2022/7/14,22:00,0,0
�n����ʂ�,3_1_2,2022/7/14,23:00,0,0
�n����ʂ�,3_1_2,2022/7/15,0:00,0,0
�n����ʂ�,3_1_2,2022/7/15,1:00,0,0
�n����ʂ�,3_1_2,2022/7/15,2:00,0,0
�n����ʂ�,3_1_2,2022/7/15,3:00,0,0
�n����ʂ�,3_1_2,2022/7/15,4:00,1,0
�n����ʂ�,3_1_2,2022/7/15,5:00,7,6
�n����ʂ�,3_1_2,2022/7/15,6:00,15,6
�n����ʂ�,3_1_2,2022/7/15,7:00,24,12
�n����ʂ�,3_1_2,2022/7/15,8:00,21,30
�n����ʂ�,3_1_2,2022/7/15,9:00,39,32
�n����ʂ�,3_1_2,2022/7/15,10:00,64,45
�n����ʂ�,3_1_2,2022/7/15,11:00,92,70
�n����ʂ�,3_1_2,2022/7/15,12:00,63,69
�n����ʂ�,3_1_2,2022/7/15,13:00,85,53
�n����ʂ�,3_1_2,2022/7/15,14:00,91,63
�n����ʂ�,3_1_2,2022/7/15,15:00,25,23
�n����ʂ�,3_1_2,2022/7/15,16:00,37,36
�n����ʂ�,3_1_2,2022/7/15,17:00,47,40
�n����ʂ�,3_1_2,2022/7/15,18:00,28,31
�n����ʂ�,3_1_2,2022/7/15,19:00,11,20
�n����ʂ�,3_1_2,2022/7/15,20:00,7,9
�n����ʂ�,3_1_2,2022/7/15,21:00,10,9
�n����ʂ�,3_1_2,2022/7/15,22:00,0,0
�n����ʂ�,3_1_2,2022/7/15,23:00,0,0
�n����ʂ�,3_1_2,2022/7/16,0:00,0,1
�n����ʂ�,3_1_2,2022/7/16,1:00,0,0
�n����ʂ�,3_1_2,2022/7/16,2:00,0,0
�n����ʂ�,3_1_2,2022/7/16,3:00,0,0
�n����ʂ�,3_1_2,2022/7/16,4:00,0,0
�n����ʂ�,3_1_2,2022/7/16,5:00,3,3
�n����ʂ�,3_1_2,2022/7/16,6:00,4,4
�n����ʂ�,3_1_2,2022/7/16,7:00,11,8
�n����ʂ�,3_1_2,2022/7/16,8:00,12,17
�n����ʂ�,3_1_2,2022/7/16,9:00,40,34
�n����ʂ�,3_1_2,2022/7/16,10:00,59,54
�n����ʂ�,3_1_2,2022/7/16,11:00,56,70
�n����ʂ�,3_1_2,2022/7/16,12:00,68,72
�n����ʂ�,3_1_2,2022/7/16,13:00,68,60
�n����ʂ�,3_1_2,2022/7/16,14:00,58,81
�n����ʂ�,3_1_2,2022/7/16,15:00,82,90
�n����ʂ�,3_1_2,2022/7/16,16:00,48,75
�n����ʂ�,3_1_2,2022/7/16,17:00,44,60
�n����ʂ�,3_1_2,2022/7/16,18:00,41,50
�n����ʂ�,3_1_2,2022/7/16,19:00,25,30
�n����ʂ�,3_1_2,2022/7/16,20:00,7,16
�n����ʂ�,3_1_2,2022/7/16,21:00,34,19
�n����ʂ�,3_1_2,2022/7/16,22:00,18,17
�n����ʂ�,3_1_2,2022/7/16,23:00,0,0
�n����ʂ�,3_1_2,2022/7/17,0:00,1,0
�n����ʂ�,3_1_2,2022/7/17,1:00,0,0
�n����ʂ�,3_1_2,2022/7/17,2:00,0,0
�n����ʂ�,3_1_2,2022/7/17,3:00,0,0
�n����ʂ�,3_1_2,2022/7/17,4:00,1,0
�n����ʂ�,3_1_2,2022/7/17,5:00,5,3
�n����ʂ�,3_1_2,2022/7/17,6:00,4,2
�n����ʂ�,3_1_2,2022/7/17,7:00,20,12
�n����ʂ�,3_1_2,2022/7/17,8:00,8,16
�n����ʂ�,3_1_2,2022/7/17,9:00,23,38
�n����ʂ�,3_1_2,2022/7/17,10:00,41,69
�n����ʂ�,3_1_2,2022/7/17,11:00,60,67
�n����ʂ�,3_1_2,2022/7/17,12:00,60,83
�n����ʂ�,3_1_2,2022/7/17,13:00,76,84
�n����ʂ�,3_1_2,2022/7/17,14:00,101,80
�n����ʂ�,3_1_2,2022/7/17,15:00,72,64
�n����ʂ�,3_1_2,2022/7/17,16:00,60,67
�n����ʂ�,3_1_2,2022/7/17,17:00,48,66
�n����ʂ�,3_1_2,2022/7/17,18:00,47,45
�n����ʂ�,3_1_2,2022/7/17,19:00,20,25
�n����ʂ�,3_1_2,2022/7/17,20:00,18,9
�n����ʂ�,3_1_2,2022/7/17,21:00,21,20
�n����ʂ�,3_1_2,2022/7/17,22:00,17,10
�n����ʂ�,3_1_2,2022/7/17,23:00,10,4
�n����ʂ�,3_1_2,2022/7/18,0:00,0,0
�n����ʂ�,3_1_2,2022/7/18,1:00,0,0
�n����ʂ�,3_1_2,2022/7/18,2:00,0,0
�n����ʂ�,3_1_2,2022/7/18,3:00,0,0
�n����ʂ�,3_1_2,2022/7/18,4:00,1,1
�n����ʂ�,3_1_2,2022/7/18,5:00,3,8
�n����ʂ�,3_1_2,2022/7/18,6:00,9,6
�n����ʂ�,3_1_2,2022/7/18,7:00,9,10
�n����ʂ�,3_1_2,2022/7/18,8:00,12,20
�n����ʂ�,3_1_2,2022/7/18,9:00,22,23
�n����ʂ�,3_1_2,2022/7/18,10:00,37,34
�n����ʂ�,3_1_2,2022/7/18,11:00,49,53
�n����ʂ�,3_1_2,2022/7/18,12:00,98,103
�n����ʂ�,3_1_2,2022/7/18,13:00,67,95
�n����ʂ�,3_1_2,2022/7/18,14:00,52,53
�n����ʂ�,3_1_2,2022/7/18,15:00,28,62
�n����ʂ�,3_1_2,2022/7/18,16:00,27,49
�n����ʂ�,3_1_2,2022/7/18,17:00,34,31
�n����ʂ�,3_1_2,2022/7/18,18:00,18,12
�n����ʂ�,3_1_2,2022/7/18,19:00,5,4
�n����ʂ�,3_1_2,2022/7/18,20:00,4,18
�n����ʂ�,3_1_2,2022/7/18,21:00,9,29
�n����ʂ�,3_1_2,2022/7/18,22:00,0,0
�n����ʂ�,3_1_2,2022/7/18,23:00,0,0
�n����ʂ�,3_1_2,2022/7/19,0:00,0,0
�n����ʂ�,3_1_2,2022/7/19,1:00,0,0
�n����ʂ�,3_1_2,2022/7/19,2:00,0,0
�n����ʂ�,3_1_2,2022/7/19,3:00,0,0
�n����ʂ�,3_1_2,2022/7/19,4:00,0,0
�n����ʂ�,3_1_2,2022/7/19,5:00,8,14
�n����ʂ�,3_1_2,2022/7/19,6:00,12,11
�n����ʂ�,3_1_2,2022/7/19,7:00,49,48
�n����ʂ�,3_1_2,2022/7/19,8:00,39,25
�n����ʂ�,3_1_2,2022/7/19,9:00,26,25
�n����ʂ�,3_1_2,2022/7/19,10:00,16,14
�n����ʂ�,3_1_2,2022/7/19,11:00,14,21
�n����ʂ�,3_1_2,2022/7/19,12:00,23,16
�n����ʂ�,3_1_2,2022/7/19,13:00,32,19
�n����ʂ�,3_1_2,2022/7/19,14:00,48,48
�n����ʂ�,3_1_2,2022/7/19,15:00,34,67
�n����ʂ�,3_1_2,2022/7/19,16:00,27,46
�n����ʂ�,3_1_2,2022/7/19,17:00,22,33
�n����ʂ�,3_1_2,2022/7/19,18:00,20,25
�n����ʂ�,3_1_2,2022/7/19,19:00,9,15
�n����ʂ�,3_1_2,2022/7/19,20:00,4,2
�n����ʂ�,3_1_2,2022/7/19,21:00,1,5
�n����ʂ�,3_1_2,2022/7/19,22:00,2,0
�n����ʂ�,3_1_2,2022/7/19,23:00,0,0
�n����ʂ�,3_1_2,2022/7/20,0:00,0,0
�n����ʂ�,3_1_2,2022/7/20,1:00,0,1
�n����ʂ�,3_1_2,2022/7/20,2:00,0,0
�n����ʂ�,3_1_2,2022/7/20,3:00,0,0
�n����ʂ�,3_1_2,2022/7/20,4:00,0,0
�n����ʂ�,3_1_2,2022/7/20,5:00,6,9
�n����ʂ�,3_1_2,2022/7/20,6:00,4,2
�n����ʂ�,3_1_2,2022/7/20,7:00,12,14
�n����ʂ�,3_1_2,2022/7/20,8:00,12,42
�n����ʂ�,3_1_2,2022/7/20,9:00,20,37
�n����ʂ�,3_1_2,2022/7/20,10:00,23,31
�n����ʂ�,3_1_2,2022/7/20,11:00,66,50
�n����ʂ�,3_1_2,2022/7/20,12:00,41,44
�n����ʂ�,3_1_2,2022/7/20,13:00,26,25
�n����ʂ�,3_1_2,2022/7/20,14:00,22,28
�n����ʂ�,3_1_2,2022/7/20,15:00,17,20
�n����ʂ�,3_1_2,2022/7/20,16:00,21,29
�n����ʂ�,3_1_2,2022/7/20,17:00,37,37
�n����ʂ�,3_1_2,2022/7/20,18:00,26,23
�n����ʂ�,3_1_2,2022/7/20,19:00,16,17
�n����ʂ�,3_1_2,2022/7/20,20:00,9,12
�n����ʂ�,3_1_2,2022/7/20,21:00,8,14
�n����ʂ�,3_1_2,2022/7/20,22:00,14,3
�n����ʂ�,3_1_2,2022/7/20,23:00,0,0
�n����ʂ�,3_1_2,2022/7/21,0:00,0,1
�n����ʂ�,3_1_2,2022/7/21,1:00,0,0
�n����ʂ�,3_1_2,2022/7/21,2:00,0,0
�n����ʂ�,3_1_2,2022/7/21,3:00,0,0
�n����ʂ�,3_1_2,2022/7/21,4:00,0,0
�n����ʂ�,3_1_2,2022/7/21,5:00,8,3
�n����ʂ�,3_1_2,2022/7/21,6:00,6,4
�n����ʂ�,3_1_2,2022/7/21,7:00,13,12
�n����ʂ�,3_1_2,2022/7/21,8:00,19,31
�n����ʂ�,3_1_2,2022/7/21,9:00,21,31
�n����ʂ�,3_1_2,2022/7/21,10:00,25,28
�n����ʂ�,3_1_2,2022/7/21,11:00,20,40
�n����ʂ�,3_1_2,2022/7/21,12:00,36,35
�n����ʂ�,3_1_2,2022/7/21,13:00,18,30
�n����ʂ�,3_1_2,2022/7/21,14:00,33,45
�n����ʂ�,3_1_2,2022/7/21,15:00,35,26
�n����ʂ�,3_1_2,2022/7/21,16:00,37,26
�n����ʂ�,3_1_2,2022/7/21,17:00,38,28
�n����ʂ�,3_1_2,2022/7/21,18:00,28,23
�n����ʂ�,3_1_2,2022/7/21,19:00,8,13
�n����ʂ�,3_1_2,2022/7/21,20:00,5,7
�n����ʂ�,3_1_2,2022/7/21,21:00,34,27
�n����ʂ�,3_1_2,2022/7/21,22:00,3,1
�n����ʂ�,3_1_2,2022/7/21,23:00,0,0
�n����ʂ�,3_1_2,2022/7/22,0:00,1,0
�n����ʂ�,3_1_2,2022/7/22,1:00,0,0
�n����ʂ�,3_1_2,2022/7/22,2:00,0,0
�n����ʂ�,3_1_2,2022/7/22,3:00,0,1
�n����ʂ�,3_1_2,2022/7/22,4:00,5,1
�n����ʂ�,3_1_2,2022/7/22,5:00,9,13
�n����ʂ�,3_1_2,2022/7/22,6:00,9,4
�n����ʂ�,3_1_2,2022/7/22,7:00,22,11
�n����ʂ�,3_1_2,2022/7/22,8:00,32,37
�n����ʂ�,3_1_2,2022/7/22,9:00,40,29
�n����ʂ�,3_1_2,2022/7/22,10:00,38,37
�n����ʂ�,3_1_2,2022/7/22,11:00,59,48
�n����ʂ�,3_1_2,2022/7/22,12:00,81,49
�n����ʂ�,3_1_2,2022/7/22,13:00,64,57
�n����ʂ�,3_1_2,2022/7/22,14:00,38,37
�n����ʂ�,3_1_2,2022/7/22,15:00,29,40
�n����ʂ�,3_1_2,2022/7/22,16:00,37,42
�n����ʂ�,3_1_2,2022/7/22,17:00,61,49
�n����ʂ�,3_1_2,2022/7/22,18:00,54,62
�n����ʂ�,3_1_2,2022/7/22,19:00,30,26
�n����ʂ�,3_1_2,2022/7/22,20:00,10,18
�n����ʂ�,3_1_2,2022/7/22,21:00,12,8
�n����ʂ�,3_1_2,2022/7/22,22:00,0,0
�n����ʂ�,3_1_2,2022/7/22,23:00,0,0
�n����ʂ�,3_1_2,2022/7/23,0:00,0,0
�n����ʂ�,3_1_2,2022/7/23,1:00,0,0
�n����ʂ�,3_1_2,2022/7/23,2:00,0,1
�n����ʂ�,3_1_2,2022/7/23,3:00,0,0
�n����ʂ�,3_1_2,2022/7/23,4:00,0,0
�n����ʂ�,3_1_2,2022/7/23,5:00,2,7
�n����ʂ�,3_1_2,2022/7/23,6:00,4,7
�n����ʂ�,3_1_2,2022/7/23,7:00,6,17
�n����ʂ�,3_1_2,2022/7/23,8:00,10,31
�n����ʂ�,3_1_2,2022/7/23,9:00,37,36
�n����ʂ�,3_1_2,2022/7/23,10:00,28,39
�n����ʂ�,3_1_2,2022/7/23,11:00,90,85
�n����ʂ�,3_1_2,2022/7/23,12:00,136,112
�n����ʂ�,3_1_2,2022/7/23,13:00,64,87
�n����ʂ�,3_1_2,2022/7/23,14:00,60,65
�n����ʂ�,3_1_2,2022/7/23,15:00,43,36
�n����ʂ�,3_1_2,2022/7/23,16:00,43,65
�n����ʂ�,3_1_2,2022/7/23,17:00,57,77
�n����ʂ�,3_1_2,2022/7/23,18:00,34,32
�n����ʂ�,3_1_2,2022/7/23,19:00,19,24
�n����ʂ�,3_1_2,2022/7/23,20:00,9,20
�n����ʂ�,3_1_2,2022/7/23,21:00,16,12
�n����ʂ�,3_1_2,2022/7/23,22:00,0,1
�n����ʂ�,3_1_2,2022/7/23,23:00,0,0
�n����ʂ�,3_1_2,2022/7/24,0:00,0,0
�n����ʂ�,3_1_2,2022/7/24,1:00,0,0
�n����ʂ�,3_1_2,2022/7/24,2:00,0,0
�n����ʂ�,3_1_2,2022/7/24,3:00,0,0
�n����ʂ�,3_1_2,2022/7/24,4:00,0,2
�n����ʂ�,3_1_2,2022/7/24,5:00,3,5
�n����ʂ�,3_1_2,2022/7/24,6:00,2,2
�n����ʂ�,3_1_2,2022/7/24,7:00,27,7
�n����ʂ�,3_1_2,2022/7/24,8:00,66,14
�n����ʂ�,3_1_2,2022/7/24,9:00,78,44
�n����ʂ�,3_1_2,2022/7/24,10:00,56,46
�n����ʂ�,3_1_2,2022/7/24,11:00,51,57
�n����ʂ�,3_1_2,2022/7/24,12:00,62,86
�n����ʂ�,3_1_2,2022/7/24,13:00,76,86
�n����ʂ�,3_1_2,2022/7/24,14:00,61,74
�n����ʂ�,3_1_2,2022/7/24,15:00,47,67
�n����ʂ�,3_1_2,2022/7/24,16:00,50,72
�n����ʂ�,3_1_2,2022/7/24,17:00,32,43
�n����ʂ�,3_1_2,2022/7/24,18:00,24,26
�n����ʂ�,3_1_2,2022/7/24,19:00,9,12
�n����ʂ�,3_1_2,2022/7/24,20:00,6,8
�n����ʂ�,3_1_2,2022/7/24,21:00,118,6
�n����ʂ�,3_1_2,2022/7/24,22:00,0,0
�n����ʂ�,3_1_2,2022/7/24,23:00,0,0
�n����ʂ�,3_1_2,2022/7/25,0:00,0,0
�n����ʂ�,3_1_2,2022/7/25,1:00,0,0
�n����ʂ�,3_1_2,2022/7/25,2:00,1,0
�n����ʂ�,3_1_2,2022/7/25,3:00,0,0
�n����ʂ�,3_1_2,2022/7/25,4:00,0,0
�n����ʂ�,3_1_2,2022/7/25,5:00,12,9
�n����ʂ�,3_1_2,2022/7/25,6:00,14,12
�n����ʂ�,3_1_2,2022/7/25,7:00,44,33
�n����ʂ�,3_1_2,2022/7/25,8:00,26,23
�n����ʂ�,3_1_2,2022/7/25,9:00,27,26
�n����ʂ�,3_1_2,2022/7/25,10:00,70,42
�n����ʂ�,3_1_2,2022/7/25,11:00,86,57
�n����ʂ�,3_1_2,2022/7/25,12:00,70,54
�n����ʂ�,3_1_2,2022/7/25,13:00,68,47
�n����ʂ�,3_1_2,2022/7/25,14:00,44,48
�n����ʂ�,3_1_2,2022/7/25,15:00,24,39
�n����ʂ�,3_1_2,2022/7/25,16:00,25,37
�n����ʂ�,3_1_2,2022/7/25,17:00,38,35
�n����ʂ�,3_1_2,2022/7/25,18:00,31,42
�n����ʂ�,3_1_2,2022/7/25,19:00,8,13
�n����ʂ�,3_1_2,2022/7/25,20:00,69,6
�n����ʂ�,3_1_2,2022/7/25,21:00,38,9
�n����ʂ�,3_1_2,2022/7/25,22:00,0,0
�n����ʂ�,3_1_2,2022/7/25,23:00,0,0
�n����ʂ�,3_1_2,2022/7/26,0:00,0,0
�n����ʂ�,3_1_2,2022/7/26,1:00,0,0
�n����ʂ�,3_1_2,2022/7/26,2:00,0,0
�n����ʂ�,3_1_2,2022/7/26,3:00,0,0
�n����ʂ�,3_1_2,2022/7/26,4:00,0,0
�n����ʂ�,3_1_2,2022/7/26,5:00,4,7
�n����ʂ�,3_1_2,2022/7/26,6:00,3,6
�n����ʂ�,3_1_2,2022/7/26,7:00,22,28
�n����ʂ�,3_1_2,2022/7/26,8:00,32,45
�n����ʂ�,3_1_2,2022/7/26,9:00,39,63
�n����ʂ�,3_1_2,2022/7/26,10:00,59,48
�n����ʂ�,3_1_2,2022/7/26,11:00,60,61
�n����ʂ�,3_1_2,2022/7/26,12:00,128,91
�n����ʂ�,3_1_2,2022/7/26,13:00,76,96
�n����ʂ�,3_1_2,2022/7/26,14:00,38,65
�n����ʂ�,3_1_2,2022/7/26,15:00,47,33
�n����ʂ�,3_1_2,2022/7/26,16:00,50,56
�n����ʂ�,3_1_2,2022/7/26,17:00,37,38
�n����ʂ�,3_1_2,2022/7/26,18:00,27,28
�n����ʂ�,3_1_2,2022/7/26,19:00,26,17
�n����ʂ�,3_1_2,2022/7/26,20:00,8,9
�n����ʂ�,3_1_2,2022/7/26,21:00,33,17
�n����ʂ�,3_1_2,2022/7/26,22:00,9,3
�n����ʂ�,3_1_2,2022/7/26,23:00,1,0
�n����ʂ�,3_1_2,2022/7/27,0:00,0,0
�n����ʂ�,3_1_2,2022/7/27,1:00,0,0
�n����ʂ�,3_1_2,2022/7/27,2:00,0,0
�n����ʂ�,3_1_2,2022/7/27,3:00,0,0
�n����ʂ�,3_1_2,2022/7/27,4:00,2,1
�n����ʂ�,3_1_2,2022/7/27,5:00,4,7
�n����ʂ�,3_1_2,2022/7/27,6:00,11,11
�n����ʂ�,3_1_2,2022/7/27,7:00,38,28
�n����ʂ�,3_1_2,2022/7/27,8:00,36,26
�n����ʂ�,3_1_2,2022/7/27,9:00,46,46
�n����ʂ�,3_1_2,2022/7/27,10:00,49,54
�n����ʂ�,3_1_2,2022/7/27,11:00,61,65
�n����ʂ�,3_1_2,2022/7/27,12:00,87,58
�n����ʂ�,3_1_2,2022/7/27,13:00,54,65
�n����ʂ�,3_1_2,2022/7/27,14:00,81,69
�n����ʂ�,3_1_2,2022/7/27,15:00,56,50
�n����ʂ�,3_1_2,2022/7/27,16:00,43,44
�n����ʂ�,3_1_2,2022/7/27,17:00,38,37
�n����ʂ�,3_1_2,2022/7/27,18:00,22,23
�n����ʂ�,3_1_2,2022/7/27,19:00,16,10
�n����ʂ�,3_1_2,2022/7/27,20:00,36,23
�n����ʂ�,3_1_2,2022/7/27,21:00,30,28
�n����ʂ�,3_1_2,2022/7/27,22:00,0,0
�n����ʂ�,3_1_2,2022/7/27,23:00,0,0
�n����ʂ�,3_1_2,2022/7/28,0:00,0,0
�n����ʂ�,3_1_2,2022/7/28,1:00,0,1
�n����ʂ�,3_1_2,2022/7/28,2:00,0,0
�n����ʂ�,3_1_2,2022/7/28,3:00,0,0
�n����ʂ�,3_1_2,2022/7/28,4:00,0,2
�n����ʂ�,3_1_2,2022/7/28,5:00,5,8
�n����ʂ�,3_1_2,2022/7/28,6:00,26,2
�n����ʂ�,3_1_2,2022/7/28,7:00,31,35
�n����ʂ�,3_1_2,2022/7/28,8:00,25,33